#timestamp,LO_Frequency,Hit 
1503655215.2,286046990.8,N
1503655235.0,286046987.3,N
1503655235.9,286046987.3,N
1503655255.8,286046989.9,N
1503655275.6,286046987.9,P
1503655295.4,286047003.6,P
1503655315.3,286047005.2,N
1503655335.1,286047006.4,N
1503655355.8,286047010.4,N
1503655375.7,286047006.9,N
1503655395.5,286047006.9,N
1503655415.3,286047003.1,N
1503655435.2,286047001.8,N
1503655455.9,286047000.4,N
1503655475.7,286046997.2,N
1503655495.6,286046992.3,N
1503655515.4,286046993.6,N
1503655535.2,286046997.2,N
1503655555.0,286046998.2,N
1503655555.9,286046998.2,N
1503655575.8,286047001.0,N
1503655595.6,286047001.0,N
1503655615.4,286046996.2,N
1503655635.3,286046993.1,N
1503655655.1,286046992.2,N
1503655675.8,286046992.3,N
1503655695.7,286046994.3,N
1503655715.5,286046992.1,N
1503655735.3,286046994.1,N
1503655755.2,286046993.7,N
1503655775.9,286046992.8,N
1503655795.7,286046990.0,N
1503655815.6,286046983.6,N
1503655835.4,286046981.3,N
1503655855.2,286046979.9,N
1503655875.1,286046976.2,P
1503655876.0,286046976.2,N
1503655895.8,286046977.5,N
1503655915.6,286046978.5,N
1503655935.5,286046981.8,N
1503655955.3,286046981.9,N
1503655975.1,286046978.9,P
1503655995.9,286047005.7,P
1503656015.7,286047009.2,N
1503656035.5,286047010.2,N
1503656055.3,286047009.9,N
1503656075.2,286047009.8,N
1503656095.0,286047013.6,N
1503656095.9,286047013.6,N
1503656115.7,286047011.4,N
1503656135.6,286047010.9,N
1503656155.4,286047012.8,N
1503656175.2,286047014.3,N
1503656195.1,286047014.2,N
1503656196.0,286047014.2,N
1503656215.8,286047017.0,N
1503656235.6,286047018.3,N
1503656255.5,286047018.4,N
1503656275.3,286047019.6,N
1503656295.1,286047018.8,N
1503656315.9,286047014.1,N
1503656335.7,286047013.5,N
1503656355.5,286047012.5,N
1503656375.4,286047015.9,N
1503656395.2,286047015.5,N
1503656415.0,286047012.9,N
1503656415.9,286047012.9,N
1503656435.8,286047008.5,N
1503656455.8,286047008.5,N
1503656475.6,286047003.5,N
1503656495.4,286047002.1,N
1503656515.3,286046998.2,N
1503656535.1,286047000.3,N
1503656536.0,286047000.3,N
1503656555.8,286046998.5,N
1503656575.7,286046995.8,N
1503656595.5,286046995.8,N
1503656615.3,286046993.5,N
1503656635.2,286046994.7,N
1503656655.9,286046994.5,N
1503656675.7,286046995.2,N
1503656695.5,286046995.4,N
1503656715.4,286046996.7,N
1503656735.2,286046999.9,N
1503656755.0,286046999.9,N
1503656755.9,286046999.9,N
1503656775.8,286047005.9,N
1503656795.6,286047008.5,N
1503656815.4,286047006.2,N
1503656835.3,286047004.5,N
1503656855.1,286047008.5,N
1503656856.0,286047008.5,N
1503656875.8,286047010.8,N
1503656895.7,286047015.5,N
1503656915.5,286047015.1,N
1503656935.3,286047015.6,N
1503656955.2,286047016.5,N
1503656975.9,286047015.9,N
1503656995.7,286047014.8,N
1503657015.6,286047013.1,N
1503657035.4,286047008.0,N
1503657055.2,286047008.5,N
1503657075.0,286047006.7,N
1503657076.0,286047006.7,N
1503657095.8,286047006.7,N
1503657115.6,286047001.3,N
1503657135.4,286047001.0,N
1503657155.3,286046999.6,N
1503657175.1,286046996.2,N
1503657195.8,286046990.3,N
1503657215.7,286046991.4,N
1503657235.5,286046991.3,N
1503657255.3,286046991.9,N
1503657275.2,286046992.6,N
1503657295.9,286046992.9,N
1503657315.7,286046992.5,N
1503657335.6,286046990.4,N
1503657355.4,286046990.5,N
1503657375.2,286046991.8,N
1503657395.1,286046990.6,N
1503657396.0,286046990.6,N
1503657415.8,286046993.1,N
1503657435.6,286046991.4,N
1503657455.5,286046991.0,N
1503657475.3,286046987.2,N
1503657495.1,286046986.5,N
1503657515.8,286046985.2,N
1503657535.7,286046983.1,N
1503657555.5,286046980.4,N
1503657575.4,286046974.5,P
1503657595.2,286046982.9,N
1503657615.0,286046982.2,N
1503657615.9,286046982.2,N
1503657635.8,286046980.0,P
1503657655.6,286046991.9,P
1503657675.4,286046990.3,N
1503657695.3,286046991.3,N
1503657715.1,286046989.6,N
1503657716.0,286046989.6,N
1503657735.8,286046991.4,N
1503657755.6,286046996.3,N
1503657775.5,286046997.9,N
1503657795.3,286047000.1,N
1503657815.1,286047001.7,N
1503657835.9,286047003.5,N
1503657855.7,286047005.9,N
1503657875.5,286047003.7,N
1503657895.4,286047003.8,N
1503657915.2,286047001.8,N
1503657935.0,286046999.3,N
1503657935.9,286046999.3,N
1503657955.8,286046995.2,N
1503657975.6,286046990.9,N
1503657995.4,286046989.0,N
1503658015.3,286046987.6,N
1503658035.1,286046985.6,N
1503658036.0,286046985.6,N
1503658055.8,286046984.7,N
1503658075.7,286046983.3,N
1503658095.5,286046979.0,N
1503658115.3,286046977.4,N
1503658135.1,286046977.3,N
1503658155.9,286046978.3,N
1503658175.7,286046974.8,N
1503658195.5,286046976.4,N
1503658215.4,286046980.3,N
1503658235.2,286046978.3,N
1503658255.0,286046977.8,N
1503658255.9,286046977.8,N
1503658275.8,286046981.6,N
1503658295.6,286046982.0,N
1503658315.4,286046979.6,N
1503658335.3,286046977.5,N
1503658355.1,286046974.5,N
1503658356.0,286046974.5,N
1503658375.8,286046975.3,N
1503658395.7,286046973.9,N
1503658415.5,286046971.6,P
1503658435.3,286046986.1,N
1503658455.2,286046986.5,N
1503658475.9,286046984.6,N
1503658495.7,286046985.2,N
1503658515.6,286046984.3,P
1503658535.4,286047002.3,P
1503658555.2,286046998.4,N
1503658575.1,286046999.3,N
1503658576.0,286046999.3,N
1503658595.8,286046999.5,N
1503658615.6,286046999.2,N
1503658635.5,286047001.0,N
1503658655.3,286047006.0,N
1503658675.1,286047007.6,N
1503658695.9,286047006.7,N
1503658715.7,286047010.3,N
1503658735.5,286047011.8,N
1503658755.4,286047013.6,N
1503658775.2,286047015.5,N
1503658795.0,286047015.0,N
1503658795.9,286047015.0,N
